Simultaneous Nadir Overpasses (SNOs) Predictions

Prediction of SNOs between GOES-17 and AQUA Satellite Orbit:

Table of predicted SNOs for the next 14.0 days since TLE Epoch: 10/1/2022
Index Date Time (GOES-17) GOES-17 Lat,Lon AQUA Lat,Lon Distance(km) Time Diff (sec)
1 10/01/2022 10:54:41 0.06,-137.33 0.35,-138.74 159.93 80
2 10/03/2022 10:44:35 0.05,-137.30 -0.29,-135.63 190.12 80
3 10/03/2022 23:03:10 -0.04,-137.29 -0.81,-140.78 397.42 80
4 10/05/2022 22:50:24 -0.04,-137.26 -0.14,-137.67 47.69 80
5 10/07/2022 22:40:17 -0.03,-137.22 0.50,-134.56 302.27 80
6 10/08/2022 10:58:44 0.03,-137.22 0.56,-139.68 279.76 80
7 10/10/2022 10:48:37 0.03,-137.18 -0.11,-136.57 70.22 80
8 10/12/2022 10:35:49 0.03,-137.14 -0.75,-133.45 419.77 80
9 10/12/2022 22:54:23 -0.03,-137.12 -0.32,-138.61 167.94 80
10 10/14/2022 22:44:15 -0.03,-137.07 0.29,-135.48 180.88 80
